sat.trackr.live / text

‹ back to catalog

GLOBALSTAR M073

NORAD 37193 · 2010-054F

PAYLOAD ACTIVE UNKNOWN

§ Identity

Operator
Country
GLOB
Launch date
2010-10-19
Launch site
TYMSC
Launch vehicle
Mass (kg)
RCS (m²)
4.69

Purposes: comms

External: N2YO · Heavens-Above · Gunter

§ Orbital elements

Epoch: 2026-09-14T11:12:38.620224Z

Period
114.08 min
Inclination
52.0052°
Eccentricity
0.0000488
Mean motion
12.62268005 rev/d
Perigee alt
1,413.2 km
Apogee alt
1,414.0 km
Semi-major
7,791.7 km
B*
1.7304e-4
RAAN
152.5248°
Arg perigee
86.2355°
Mean anomaly
84.8165°
Rev number
73,520

§ Raw data

GLOBALSTAR M0731 37193U 10054F   26257.46711366 -.00000073  00000+0  17304-3 0  99972 37193  52.0052 152.5248 0000488  86.2355  84.8165 12.62268005735206

JSON: /api/v1/satellites/37193 · /tle

For live sub-satellite position, see the globe view (requires WebGL).

§ Visibility from observer

Set your observer location to see the next 7 days of passes ≥ 10°. The values pass through the URL so the page stays shareable.

No JS? Fill the form by hand. The geolocation button needs JavaScript.